AUA27 EDDK-EDDF

Flight info

Callsign AUA27
Flight time 0h 26m
Altitude 13000
Route COL4F/13L COL T911 ROLIS ROLIS5D
Aircraft A20N/M-SDE2E3FGHIRWXY/LB1

Departure

Time 2026-04-18 08:11
Airport Cologne Bonn Airport (EDDK)

Arrival

Time 2026-04-18 08:38
Airport Frankfurt Main Airport (EDDF)
Time Latitude Longitude Altitude Speed Heading
2026-04-18 07:56 50.87835 7.12452 232 ft 0 kts 288°
2026-04-18 08:05 50.87833 7.12458 239 ft 3 kts 288°
2026-04-18 08:05 50.87829 7.12480 238 ft 0 kts 288°
2026-04-18 08:05 50.87823 7.12507 235 ft 3 kts 288°
2026-04-18 08:06 50.87816 7.12537 236 ft 3 kts 304°
2026-04-18 08:06 50.87803 7.12558 236 ft 3 kts 345°
2026-04-18 08:06 50.87783 7.12564 237 ft 2 kts 20°
2026-04-18 08:06 50.87772 7.12554 234 ft 0 kts 11°
2026-04-18 08:08 50.87782 7.12558 235 ft 6 kts 15°
2026-04-18 08:09 50.87842 7.12588 233 ft 12 kts 18°
2026-04-18 08:09 50.87929 7.12637 233 ft 14 kts 28°
2026-04-18 08:09 50.87991 7.12740 235 ft 10 kts 60°
2026-04-18 08:09 50.87995 7.12754 236 ft 0 kts 66°
2026-04-18 08:10 50.88006 7.12814 238 ft 20 kts 79°
2026-04-18 08:10 50.87979 7.13007 238 ft 15 kts 135°
2026-04-18 08:10 50.87797 7.13271 238 ft 70 kts 137°
2026-04-18 08:11 50.87280 7.14021 243 ft 129 kts 137°
2026-04-18 08:11 50.86515 7.15124 426 ft 153 kts 137°
2026-04-18 08:11 50.85737 7.16303 961 ft 159 kts 136°
2026-04-18 08:11 50.84895 7.17536 1438 ft 169 kts 139°
2026-04-18 08:12 50.83995 7.18771 2017 ft 176 kts 139°
2026-04-18 08:12 50.83012 7.20113 2575 ft 196 kts 140°
2026-04-18 08:12 50.81968 7.21604 3138 ft 215 kts 132°
2026-04-18 08:12 50.81237 7.23767 3685 ft 235 kts 104°
2026-04-18 08:13 50.81046 7.26349 4576 ft 239 kts 91°
2026-04-18 08:13 50.80912 7.29035 5328 ft 251 kts 97°
2026-04-18 08:13 50.80658 7.31788 6240 ft 255 kts 99°
2026-04-18 08:13 50.80385 7.34579 7136 ft 259 kts 99°
2026-04-18 08:14 50.80122 7.37421 7942 ft 266 kts 98°
2026-04-18 08:14 50.79860 7.40445 8445 ft 288 kts 98°
2026-04-18 08:14 50.79601 7.43619 9344 ft 294 kts 97°
2026-04-18 08:14 50.79347 7.46808 10257 ft 300 kts 97°
2026-04-18 08:15 50.79080 7.50202 10715 ft 323 kts 97°
2026-04-18 08:15 50.78792 7.53849 11079 ft 345 kts 99°
2026-04-18 08:15 50.78020 7.57469 11758 ft 352 kts 121°
2026-04-18 08:15 50.76462 7.60443 12486 ft 356 kts 141°
2026-04-18 08:16 50.74387 7.62504 12613 ft 352 kts 157°
2026-04-18 08:16 50.72129 7.63993 12725 ft 352 kts 161°
2026-04-18 08:16 50.69835 7.65360 12839 ft 352 kts 161°
2026-04-18 08:16 50.67577 7.66728 12946 ft 353 kts 161°
2026-04-18 08:17 50.65290 7.68167 13060 ft 354 kts 160°
2026-04-18 08:17 50.63010 7.69645 13166 ft 354 kts 160°
2026-04-18 08:17 50.60724 7.71149 13203 ft 357 kts 159°
2026-04-18 08:17 50.58434 7.72665 13203 ft 357 kts 159°
2026-04-18 08:18 50.56147 7.74183 13200 ft 357 kts 159°
2026-04-18 08:18 50.53806 7.75735 13200 ft 357 kts 159°
2026-04-18 08:18 50.51574 7.77211 13202 ft 356 kts 159°
2026-04-18 08:18 50.49320 7.78698 13202 ft 356 kts 159°
2026-04-18 08:19 50.47029 7.80207 13060 ft 358 kts 159°
2026-04-18 08:19 50.44749 7.81742 12792 ft 355 kts 156°
2026-04-18 08:19 50.42614 7.83670 12542 ft 354 kts 147°
2026-04-18 08:19 50.40663 7.86025 12294 ft 354 kts 143°
2026-04-18 08:20 50.38742 7.88431 12032 ft 352 kts 143°
2026-04-18 08:20 50.36850 7.90788 11694 ft 344 kts 143°
2026-04-18 08:20 50.34983 7.93104 11234 ft 341 kts 143°
2026-04-18 08:20 50.33132 7.95394 10769 ft 337 kts 143°
2026-04-18 08:21 50.31343 7.97605 10562 ft 326 kts 143°
2026-04-18 08:21 50.29603 7.99754 10428 ft 312 kts 143°
2026-04-18 08:21 50.27941 8.01805 10312 ft 298 kts 143°
2026-04-18 08:21 50.26399 8.03864 10201 ft 286 kts 136°
2026-04-18 08:22 50.25121 8.06241 10180 ft 288 kts 129°
2026-04-18 08:22 50.23906 8.08737 10083 ft 289 kts 129°
2026-04-18 08:22 50.22693 8.11209 9815 ft 285 kts 129°
2026-04-18 08:22 50.21481 8.13667 9553 ft 286 kts 129°
2026-04-18 08:23 50.20252 8.16087 9283 ft 282 kts 136°
2026-04-18 08:23 50.18666 8.17735 9029 ft 278 kts 162°
2026-04-18 08:23 50.16793 8.18454 8775 ft 277 kts 169°
2026-04-18 08:23 50.15006 8.19509 8508 ft 277 kts 147°
2026-04-18 08:24 50.13684 8.21700 8250 ft 282 kts 121°
2026-04-18 08:24 50.13114 8.24622 8009 ft 286 kts 94°
2026-04-18 08:24 50.13281 8.27709 7754 ft 287 kts 81°
2026-04-18 08:24 50.13659 8.30744 7504 ft 285 kts 79°
2026-04-18 08:25 50.14042 8.33775 7256 ft 284 kts 81°
2026-04-18 08:25 50.14377 8.36798 7009 ft 283 kts 82°
2026-04-18 08:25 50.14666 8.39818 6760 ft 281 kts 83°
2026-04-18 08:25 50.14929 8.42830 6522 ft 280 kts 84°
2026-04-18 08:26 50.15175 8.45789 6268 ft 280 kts 84°
2026-04-18 08:26 50.15418 8.48795 6012 ft 278 kts 85°
2026-04-18 08:26 50.15658 8.51804 5750 ft 277 kts 84°
2026-04-18 08:26 50.15903 8.54752 5505 ft 276 kts 84°
2026-04-18 08:27 50.16154 8.57715 5253 ft 276 kts 84°
2026-04-18 08:27 50.16404 8.60661 5069 ft 272 kts 84°
2026-04-18 08:27 50.16650 8.63593 5004 ft 273 kts 84°
2026-04-18 08:27 50.16893 8.66536 4996 ft 274 kts 84°
2026-04-18 08:28 50.17284 8.69405 4996 ft 275 kts 73°
2026-04-18 08:28 50.17953 8.72201 4996 ft 275 kts 70°
2026-04-18 08:28 50.18626 8.75000 4995 ft 276 kts 70°
2026-04-18 08:28 50.19295 8.77801 4993 ft 276 kts 70°
2026-04-18 08:29 50.19960 8.80600 5002 ft 275 kts 70°
2026-04-18 08:29 50.20626 8.83414 5002 ft 276 kts 71°
2026-04-18 08:29 50.21281 8.86204 4994 ft 269 kts 71°
2026-04-18 08:29 50.21910 8.88880 4988 ft 255 kts 71°
2026-04-18 08:30 50.22315 8.91433 4990 ft 237 kts 92°
2026-04-18 08:30 50.21898 8.93903 4989 ft 240 kts 123°
2026-04-18 08:30 50.20737 8.95681 4993 ft 233 kts 154°
2026-04-18 08:30 50.19255 8.96690 4988 ft 232 kts 159°
2026-04-18 08:31 50.17751 8.97587 4969 ft 232 kts 168°
2026-04-18 08:31 50.16185 8.97381 4876 ft 229 kts 206°
2026-04-18 08:31 50.14981 8.95799 4769 ft 229 kts 233°
2026-04-18 08:31 50.14208 8.93663 4665 ft 230 kts 245°
2026-04-18 08:32 50.13627 8.91349 4563 ft 229 kts 250°
2026-04-18 08:32 50.13083 8.89016 4468 ft 228 kts 249°
2026-04-18 08:32 50.12543 8.86750 4357 ft 218 kts 249°
2026-04-18 08:32 50.12028 8.84586 4253 ft 208 kts 249°
2026-04-18 08:33 50.11533 8.82506 4126 ft 203 kts 249°
2026-04-18 08:33 50.11045 8.80462 3926 ft 199 kts 249°
2026-04-18 08:33 50.10574 8.78485 3720 ft 191 kts 250°
2026-04-18 08:33 50.10418 8.77831 3626 ft 189 kts 250°
2026-04-18 08:34 50.10104 8.76514 3459 ft 184 kts 250°
2026-04-18 08:34 50.09665 8.74672 3215 ft 179 kts 250°
2026-04-18 08:34 50.09242 8.72882 2970 ft 174 kts 251°
2026-04-18 08:34 50.08832 8.71178 2760 ft 166 kts 250°
2026-04-18 08:35 50.08438 8.69535 2536 ft 165 kts 250°
2026-04-18 08:35 50.08041 8.67868 2332 ft 160 kts 251°
2026-04-18 08:35 50.07663 8.66279 2106 ft 152 kts 251°
2026-04-18 08:35 50.07312 8.64806 1910 ft 139 kts 252°
2026-04-18 08:36 50.06984 8.63427 1728 ft 137 kts 252°
2026-04-18 08:36 50.06660 8.62039 1507 ft 137 kts 253°
2026-04-18 08:36 50.06343 8.60663 1337 ft 135 kts 252°
2026-04-18 08:36 50.06000 8.59313 1150 ft 137 kts 250°
2026-04-18 08:37 50.05672 8.57933 928 ft 136 kts 251°
2026-04-18 08:37 50.05341 8.56554 763 ft 137 kts 250°
2026-04-18 08:37 50.05011 8.55159 556 ft 138 kts 251°
2026-04-18 08:37 50.04680 8.53777 402 ft 135 kts 251°
2026-04-18 08:38 50.04354 8.52424 353 ft 122 kts 251°
2026-04-18 08:38 50.04174 8.51733 345 ft 35 kts 232°
2026-04-18 08:38 50.04078 8.51505 348 ft 23 kts 228°
2026-04-18 08:38 50.03973 8.51369 349 ft 13 kts 203°
2026-04-18 08:39 50.03910 8.51441 345 ft 14 kts 93°
2026-04-18 08:39 50.03939 8.51592 353 ft 16 kts 67°
2026-04-18 08:39 50.03986 8.51763 352 ft 18 kts 70°
2026-04-18 08:39 50.04030 8.51961 352 ft 20 kts 71°
2026-04-18 08:40 50.04082 8.52175 353 ft 22 kts 72°
2026-04-18 08:40 50.04134 8.52404 347 ft 23 kts 62°
2026-04-18 08:40 50.04196 8.52644 351 ft 25 kts 70°
2026-04-18 08:40 50.04256 8.52901 353 ft 25 kts 69°
2026-04-18 08:41 50.04318 8.53160 354 ft 26 kts 70°
2026-04-18 08:41 50.04382 8.53433 347 ft 27 kts 70°
2026-04-18 08:41 50.04412 8.53726 353 ft 28 kts 84°
2026-04-18 08:41 50.04429 8.54025 354 ft 28 kts 85°
2026-04-18 08:42 50.04449 8.54331 351 ft 27 kts 85°
2026-04-18 08:42 50.04425 8.54597 349 ft 23 kts 115°
2026-04-18 08:42 50.04343 8.54746 345 ft 16 kts 139°
2026-04-18 08:42 50.04234 8.54813 351 ft 18 kts 162°
2026-04-18 08:43 50.04119 8.54881 351 ft 14 kts 159°
2026-04-18 08:43 50.04085 8.54900 347 ft 2 kts 161°
2026-04-18 08:43 50.04044 8.54926 349 ft 12 kts 150°
2026-04-18 08:43 50.04030 8.55058 354 ft 16 kts 70°
2026-04-18 08:44 50.04068 8.55227 351 ft 18 kts 70°
2026-04-18 08:44 50.04113 8.55417 354 ft 20 kts 69°
2026-04-18 08:44 50.04166 8.55628 347 ft 22 kts 69°
2026-04-18 08:44 50.04211 8.55818 346 ft 15 kts 69°
2026-04-18 08:45 50.04226 8.55880 348 ft 0 kts 70°
2026-04-18 08:47 50.04240 8.55938 346 ft 13 kts 69°
2026-04-18 08:47 50.04286 8.56065 348 ft 15 kts 27°
2026-04-18 08:47 50.04378 8.56037 349 ft 13 kts 345°
2026-04-18 08:47 50.04444 8.56091 350 ft 12 kts 64°
2026-04-18 08:48 50.04475 8.56214 352 ft 9 kts 69°
2026-04-18 08:48 50.04445 8.56266 352 ft 5 kts 161°
2026-04-18 08:48 50.04428 8.56274 351 ft 0 kts 164°
2026-04-18 08:48 50.04423 8.56276 351 ft 0 kts 164°